Location: Aalsum
(53.3404°N, 6.0062°E)
Time: 06:16:20
(UTC+00:00)

Resurs 01 Rocket - Pass Details

Date: 28 January 2023
Orbit: 632 x 643 km, 97.9° (Epoch: 24 March)

Event Time Altitude Azimuth Distance (km) Brightness Sun altitude
Exits shadow 19:56:53 12° 344° (NNW) 1,913 4.3 -33.4°
Drops below altitude 10° 19:57:13 10° 344° (NNW) 2,051 4.5 -33.4°
Sets 19:59:27 0° 346° (NNW) 2,967 5.4 -33.7°
